This demonstration page uses our WeatherBlox Daily Observations layout. Learn more.

41.55636, -103.73856

Hourly Observations for August 15, 2018

Temp ( °F °C ) Dew Point ( °F °C ) Humidity (%) Winds ( mph kmh ) Pressure ( in mb ) Visibility ( mi km ) Precip ( " mm )
12:58 am 00:58 Mostly Cloudy 58 14.5 55 13 91 91 S 7 11 29.97 1015 10 16.09344 0 0
1:58 am 01:58 Clear 57 14 55 12.8 93 93 S 9 15 29.94 1014 10 16.09344 0 0
2:58 am 02:58 Mostly Clear 55 12.9 54 12.2 96 96 ESE 7 11 29.94 1014 9 14.484096 0 0
3:58 am 03:58 Partly Cloudy 56 13.6 55 12.7 94 94 ESE 14 22 29.91 1013 7 11.265408 0.01 0.254
4:58 am 04:58 Mostly Cloudy 57 13.9 55 12.9 94 94 S 7 11 29.91 1013 10 16.09344 0 0
5:58 am 05:58 Clear 58 14.5 54 12.4 87 87 SSW 3 6 29.91 1013 10 16.09344 0 0
6:58 am 06:58 Sunny 57 13.8 55 12.8 94 94 SW 6 9 29.94 1014 10 16.09344 0 0
7:58 am 07:58 Sunny 60 15.7 57 14 90 90 W 8 13 29.97 1015 10 16.09344 0 0
8:58 am 08:58 Sunny 64 17.9 58 14.2 79 79 WNW 9 15 29.97 1015 10 16.09344 0 0
9:58 am 09:58 Mostly Sunny 67 19.6 57 14 70 70 N 13 20 29.97 1015 10 16.09344 0 0
10:58 am 10:58 Sunny 69 20.8 58 14.3 66 66 N 13 20 29.97 1015 10 16.09344 0 0
11:58 am 11:58 Sunny 70 21.2 57 13.9 63 63 N 13 20 29.97 1015 10 16.09344 0 0
12:58 pm 12:58 Sunny 72 22.4 58 14.3 60 60 NNW 12 19 29.97 1015 10 16.09344 0 0
1:58 pm 13:58 Sunny 75 24.1 56 13.4 51 51 NNE 12 19 29.94 1014 10 16.09344 0 0
2:58 pm 14:58 Sunny 78 25.3 54 12.2 44 44 N 8 13 29.94 1014 10 16.09344 0 0
3:58 pm 15:58 Sunny 79 26.3 48 9 34 34 NNE 13 20 29.91 1013 10 16.09344 0 0
4:58 pm 16:58 Sunny 79 26.2 50 9.9 36 36 NE 15 24 29.88 1012 10 16.09344 0 0
5:58 pm 17:58 Sunny 77 25.1 50 9.9 38 38 NNE 13 20 29.91 1013 10 16.09344 0 0
6:58 pm 18:58 Sunny 74 23.1 53 11.6 48 48 E 5 7 29.94 1014 10 16.09344 0 0
7:58 pm 19:58 Clear 71 21.4 51 10.8 51 51 E 5 7 29.94 1014 10 16.09344 0 0
8:58 pm 20:58 Clear 64 17.8 56 13.3 75 75 E 9 15 29.97 1015 10 16.09344 0 0
9:58 pm 21:58 Clear 62 16.8 56 13.6 82 82 ESE 10 17 29.97 1015 10 16.09344 0 0
10:58 pm 22:58 Clear 58 14.4 55 12.7 90 90 E 6 9 30 1016 10 16.09344 0 0
11:58 pm 23:58 Partly Cloudy 59 14.9 55 12.7 87 87 SSE 5 7 30 1016 10 16.09344 0 0

Powered by AerisWeather